TimeEDT,TemperatureF,Dew PointF,Humidity,Sea Level PressureIn,VisibilityMPH,Wind Direction,Wind SpeedMPH,Gust SpeedMPH,PrecipitationIn,Events,Conditions,WindDirDegrees,DateUTC
12:53 AM,82.0,77.0,85,30.06,10.0,ESE,12.7,-,N/A,,Overcast,110,2013-06-16 04:53:00
1:53 AM,82.0,75.9,82,30.05,10.0,ESE,18.4,-,N/A,,Overcast,110,2013-06-16 05:53:00
2:53 AM,82.0,77.0,85,30.04,10.0,ESE,15.0,-,N/A,,Overcast,110,2013-06-16 06:53:00
3:53 AM,81.0,77.0,88,30.03,10.0,ESE,12.7,-,N/A,,Mostly Cloudy,110,2013-06-16 07:53:00
4:18 AM,81.0,77.0,88,30.03,10.0,ESE,13.8,-,N/A,,Mostly Cloudy,120,2013-06-16 08:18:00
4:50 AM,80.6,77.0,89,30.03,10.0,ESE,11.5,-,N/A,,Scattered Clouds,120,2013-06-16 08:50:00
4:53 AM,81.0,77.0,88,30.03,10.0,SE,11.5,-,N/A,,Mostly Cloudy,130,2013-06-16 08:53:00
5:28 AM,81.0,77.0,88,30.03,10.0,ESE,10.4,-,N/A,,Mostly Cloudy,120,2013-06-16 09:28:00
5:53 AM,80.1,77.0,90,30.04,10.0,SE,9.2,-,N/A,,Mostly Cloudy,130,2013-06-16 09:53:00
6:53 AM,80.1,77.0,90,30.06,10.0,ESE,9.2,-,N/A,,Mostly Cloudy,120,2013-06-16 10:53:00
7:08 AM,80.1,77.0,90,30.05,10.0,ESE,8.1,-,N/A,,Scattered Clouds,120,2013-06-16 11:08:00
7:16 AM,80.1,77.0,90,30.05,10.0,SE,8.1,-,N/A,,Mostly Cloudy,130,2013-06-16 11:16:00
7:23 AM,80.1,77.0,90,30.05,10.0,SE,9.2,-,N/A,,Scattered Clouds,130,2013-06-16 11:23:00
7:53 AM,80.1,77.0,90,30.06,10.0,SE,9.2,-,N/A,,Scattered Clouds,130,2013-06-16 11:53:00
8:14 AM,80.1,77.0,90,30.07,10.0,SE,9.2,-,N/A,,Mostly Cloudy,130,2013-06-16 12:14:00
8:38 AM,81.0,77.0,88,30.07,10.0,ESE,6.9,-,N/A,,Scattered Clouds,120,2013-06-16 12:38:00
8:53 AM,81.0,77.0,88,30.07,10.0,SE,8.1,-,N/A,,Mostly Cloudy,130,2013-06-16 12:53:00
9:03 AM,81.0,77.0,88,30.08,10.0,SE,8.1,-,N/A,,Scattered Clouds,130,2013-06-16 13:03:00
9:14 AM,81.0,77.0,88,30.07,10.0,SE,5.8,-,N/A,,Mostly Cloudy,130,2013-06-16 13:14:00
9:30 AM,82.0,77.0,85,30.07,10.0,SE,6.9,-,N/A,,Scattered Clouds,130,2013-06-16 13:30:00
9:53 AM,82.9,77.0,82,30.07,10.0,ESE,4.6,-,N/A,,Partly Cloudy,110,2013-06-16 13:53:00
10:53 AM,84.0,77.0,79,30.06,10.0,SE,4.6,-,N/A,,Partly Cloudy,130,2013-06-16 14:53:00
11:53 AM,87.1,78.1,74,30.07,10.0,East,3.5,-,N/A,,Clear,80,2013-06-16 15:53:00
12:53 PM,89.1,78.1,70,30.06,10.0,Calm,Calm,-,N/A,,Clear,0,2013-06-16 16:53:00
1:53 PM,91.0,78.1,66,30.05,10.0,ENE,3.5,-,N/A,,Clear,70,2013-06-16 17:53:00
2:53 PM,89.1,77.0,67,30.04,10.0,WSW,8.1,-,N/A,,Clear,250,2013-06-16 18:53:00
3:14 PM,87.1,75.9,69,30.03,10.0,NNW,10.4,-,N/A,,Mostly Cloudy,330,2013-06-16 19:14:00
3:53 PM,88.0,75.9,67,30.02,10.0,WNW,6.9,-,N/A,,Partly Cloudy,290,2013-06-16 19:53:00
4:53 PM,88.0,75.9,67,30.01,10.0,WSW,13.8,-,N/A,,Clear,250,2013-06-16 20:53:00
5:53 PM,87.1,75.9,69,30.01,10.0,NNW,8.1,-,N/A,,Mostly Cloudy,330,2013-06-16 21:53:00
6:51 PM,87.8,73.4,62,30.03,10.0,WSW,5.8,-,N/A,Thunderstorm,Mostly Cloudy,250,2013-06-16 22:51:00
6:53 PM,87.1,75.0,67,30.02,10.0,WNW,6.9,-,N/A,Thunderstorm,Overcast,290,2013-06-16 22:53:00
7:08 PM,87.1,75.0,67,30.02,10.0,West,5.8,-,N/A,,Mostly Cloudy,280,2013-06-16 23:08:00
7:53 PM,87.1,73.9,65,30.02,10.0,WNW,6.9,-,N/A,,Scattered Clouds,290,2013-06-16 23:53:00
8:53 PM,86.0,75.0,70,30.03,10.0,NNW,5.8,-,N/A,,Clear,340,2013-06-17 00:53:00
9:53 PM,84.9,75.9,74,30.04,10.0,WNW,4.6,-,N/A,,Clear,290,2013-06-17 01:53:00
10:53 PM,84.0,75.9,76,30.05,10.0,NNW,4.6,-,N/A,,Clear,330,2013-06-17 02:53:00
11:53 PM,84.0,77.0,79,30.08,10.0,ESE,9.2,-,N/A,,Overcast,110,2013-06-17 03:53:00